Torna al catalogo

GONETS M 14

M24

AttivoComunicazioniPO
NORAD 44905·PAYLOAD·🇷🇺 Russia

Lanciato Dec 26, 2019 da Plesetsk Cosmodrome

Loading…

Prossimi Passaggi (prossime 24 ore)

TLE

AggiornatoSource: Space-Track

Epoca: Sep 14, 2026, 13:29 UTC

1 44905U 19096A   26257.56204685 -.00000078  00000-0 -63373-3 0  9997
2 44905  82.5262  29.2130 0012677 320.6658  39.3500 12.42871930304788

Traccia GONETS M 14 in tempo reale con AllMySat

Download on the App Store